Regional Weather Roundup
Issued by NWS

Home | Current Version | Previous Version | Graphics & Text | Print | Product List | Glossary On
Versions: 1 2 3 4 5 6 7 8 9 10 11 12 13 14 15 16 17 18 19 20 21 22 23 24 25 26 27 28
000
ASUS45 KTFX 021410
RWRMT
MONTANA REGIONAL WEATHER ROUNDUP
NATIONAL WEATHER SERVICE GREAT FALLS MT
700 AM MST FRI DEC 02 2016

NOTE: "FAIR" INDICATES FEW OR NO CLOUDS BELOW 12000 FEET WITH NO
SIGNIFICANT WEATHER AND/OR OBSTRUCTIONS TO VISIBILITY.

MTZ001>007-043-021500-
WEST OF THE DIVIDE

CITY           SKY/WX    TMP DP  RH WIND       PRES   REMARKS
KALISPELL      CLOUDY    29  27  92 CALM      30.22F
MISSOULA       CLOUDY    28  25  88 NW3       30.29R
BUTTE          CLOUDY    18  15  88 CALM      30.19R
MULLAN PASS    CLOUDY    19  17  92 SW6       30.15F WCI  11
ANACONDA         N/A     27  16  63 SW10      30.20R WCI  17
DEER LODGE       N/A     25  23  93 CALM      30.24R
EUREKA           N/A     28  27  93 CALM      30.23S
HAMILTON         N/A     34  16  47 CALM      30.28R
LIBBY            N/A     28  28 100 CALM      30.24F
PLAINS           N/A     32  26  78 CALM      30.26F
RONAN            N/A     34  25  70 CALM      30.27S
THOMPSON FALLS   N/A     31  29  92 CALM      30.31R
$$

MTZ008-052>055-021500-
SOUTHWEST MONTANA

CITY           SKY/WX    TMP DP  RH WIND       PRES   REMARKS
BOZEMAN        CLEAR     23  19  85 S6        30.20R WCI  16
DILLON         PTCLDY    17  11  77 S7        30.19R WCI   8
W YELLOWSTONE  CLOUDY    10   9  92 CALM      30.16R
ENNIS          CLOUDY    16  14  93 CALM      30.22R
THREE FORKS      N/A     14  14 100 CALM      30.17R VSB 1
TWIN BRIDGES     N/A     17   8  67 SE3       30.16R
$$

MTZ009-010-012-014-046-048-049-054-021500-
EAST SLOPES AND CENTRAL MONTANA

CITY           SKY/WX    TMP DP  RH WIND       PRES   REMARKS
CUT BANK       CLEAR     19  16  88 CALM      30.08S
GREAT FALLS    CLEAR     23  19  85 S14       30.13R WCI  11
HELENA         CLOUDY    29  16  58 S3        30.19R
AUGUSTA          N/A     21  16  80 W10       30.09S WCI  10
BOWMANS CRNR     N/A     23  18  82 SW9       30.10S WCI  13
CHOTEAU          N/A     21  16  79 S6        30.11S WCI  14
CONRAD           N/A     10   9  96 NW2       30.10S
FAIRFIELD        N/A     20  14  77 SW3       30.10S
POWER            N/A     18  16  94 SW10      30.10S WCI   6
RAYNESFORD       N/A     25  19  80 SW8G14    30.12S WCI  16
ULM              N/A     15  12  88 SW5       30.15R
$$

MTZ011-013-016-021-045-047-050-051-021500-
NORTH CENTRAL MONTANA

CITY           SKY/WX    TMP DP  RH WIND       PRES   REMARKS
HAVRE          CLEAR     21  19  92 SW13      30.13S WCI   9
LEWISTOWN      CLEAR     19  17  92 S10       30.12F WCI   7
N BAR RANCH    CLOUDY    27  21  80 W5        30.13S
CHINOOK          N/A     27  25  93 CALM      30.14R
DENTON           N/A     23  22  96 SW20G26   30.10S WCI   8
GEYSER           N/A     22  19  87 SW8       30.11S WCI  13
GRASS RANGE      N/A     27  25  91 W10       30.10R WCI  17
JUDITH GAP       N/A     20  18  93 S9        30.12S WCI   9
ROY              N/A     28  25  87 MISG      30.10S
STANFORD       MOCLDY    20  18  93 W3        30.11S
WINIFRED         N/A     26  25  97 MISG      30.11S
$$

MTZ017>020-022>027-061-062-021500-
NORTHEAST MONTANA

CITY           SKY/WX    TMP DP  RH WIND       PRES   REMARKS
GLASGOW        CLOUDY    26  24  92 W10       30.14R WCI  16
JORDAN           N/A     30  27  88 W6        30.15R WCI  24
SIDNEY         CLOUDY    23  22  96 SE3       30.16S
WOLF POINT     CLOUDY    29  25  85 W3        30.16R
PLENTYWOOD       N/A     27  25  93 CALM      30.14R
POPLAR           N/A     27  23  86 CALM      30.16F
SCOBEY           N/A     25  19  77 CALM      30.10S
$$

MTZ028>42-056>058-021500-
SOUTHCENTRAL AND SOUTHEAST MONTANA

CITY           SKY/WX    TMP DP  RH WIND       PRES   REMARKS
BAKER          CLOUDY    21  19  92 W8        30.15R WCI  11
BILLINGS       CLOUDY    30  21  69 SW9       30.18R WCI  22
LIVINGSTON     CLOUDY    28  19  69 W12       30.16R WCI  18
MILES CITY     CLOUDY    20  17  88 S6        30.18R WCI  12
BIG TIMBER     PTCLDY    27  21  80 W20G26    30.17S WCI  13
EKALAKA          N/A     22  18  85 SW1       30.10R
FORSYTH          N/A     27  23  86 CALM      30.18R
HARLOWTON        N/A     24  22  89 W10       30.13S WCI  14
LAUREL           N/A     27  11  51 CALM      30.14R
ROUNDUP          N/A     25  18  74 S10       30.06R WCI  15
$$

REGIONAL REPORTS...DAKOTAS

CITY           SKY/WX    TMP DP  RH WIND       PRES   REMARKS
WILLISTON      CLOUDY    28  24  85 S5        30.17R
MINOT          CLOUDY    26  20  77 CALM      30.20R
DICKINSON      CLOUDY    22  19  89 S7        30.13R WCI  13
BEACH          FLURRIES  25  23  93 SW3       30.17R
CROSBY         CLOUDY    27  27 100 S8        30.18S WCI  18
TIOGA          CLOUDY    25  25 100 SE7       30.17S WCI  17
WATFORD CITY   CLOUDY    25  25 100 S6        30.16S WCI  18
BISMARCK       CLOUDY    24  20  84 E3        30.23R
GRAND FORKS    CLOUDY    29  22  75 CALM      30.23R
FARGO          CLOUDY    28  20  71 N9        30.23R WCI  19
BUFFALO SD       N/A     23  21  92 W5        30.07R
RAPID CITY     CLOUDY    25  21  85 CALM      30.14R
$$

REGIONAL REPORTS...WYOMING/IDAHO/WASHINGTON

CITY           SKY/WX    TMP DP  RH WIND       PRES   REMARKS
GILLETTE       CLEAR     22  21  96 W9        30.14R WCI  12
SHERIDAN       CLOUDY    28  24  85 CALM      30.16R
BUFFALO WY     CLOUDY    28  15  58 CALM      30.14R
CODY           CLOUDY    25  14  63 SW7       30.16R WCI  17
YELLOWSTONE LA   N/A     10   9  95 CALM      30.12R
IDAHO FALLS    FOG       16  14  92 CALM      30.24R VSB 1/4
SALMON         CLOUDY    23  21  93 SE5       30.28R
BOISE          CLEAR     21  18  88 S3        30.34R
SPOKANE        FOG       31  29  92 S5        30.30S VSB 1
$$

REGIONAL REPORTS...ALBERTA

CITY           SKY/WX    TMP DP  RH WIND       PRES   REMARKS
EDMONTON       CLEAR     19  18  93 S3        29.98F
CALGARY        CLEAR     18  14  86 S6        29.97F WCI   9
LETHBRIDGE     PTCLDY    23  18  80 SW13      30.04F WCI  11
MEDICINE HAT   CLOUDY    28  27  93 SW3       30.10S FOG
WATERTON GATE    N/A     30  16  55 SW24G33     N/A  WCI  16
CARDSTON         N/A     14   9  79 SE5         N/A
MILK RIVER       N/A     18  14  86 W6          N/A  WCI   9
ONEFOUR          N/A     21  19  93 NW12        N/A  WCI   9
$$

REGIONAL REPORTS...SASKATCHEWAN

CITY           SKY/WX    TMP DP  RH WIND       PRES   REMARKS
SWIFT CURRENT  CLOUDY    21  21 100 SW7       30.06S WCI  13
REGINA         FRZ DRZL  25  25 100 W7        30.12S FOG     WCI  17
SASKATOON      CLOUDY    28  23  80 VRB2      30.12F
CYPRESS HILLS    N/A     21  18  86 W5          N/A
VAL MARIE        N/A     23  19  86 S5          N/A
ROCKGLEN         N/A     21  21 100 CALM        N/A
ASSINIBOIA       N/A     25  25 100 SW7         N/A  WCI  17
$$




USA.gov is the U.S. government's official web portal to all federal, state and local government web resources and services.